Date,Time,Wetness (Wet Dry or Ice),Wind Speed (m/s),Temperature (C),Humidity (%),Pressure (mb),Radiation (W/m^2)
2020-05-24,05:00:00,DRY,1.30,16.90,19.7,779.00,1.3
2020-05-24,05:05:00,DRY,1.30,16.80,19.5,779.00,1.9
2020-05-24,05:10:00,DRY,0.83,17.23,18.3,779.00,1.7
2020-05-24,05:15:00,DRY,0.45,17.45,18.0,779.00,1.2
2020-05-24,05:20:00,DRY,1.00,17.27,18.3,779.00,0.6
2020-05-24,05:25:00,DRY,0.85,17.15,18.0,779.00,1.1
2020-05-24,05:30:00,DRY,1.20,17.47,17.7,779.00,0.8
2020-05-24,05:35:00,DRY,1.65,17.80,17.0,779.00,1.1
2020-05-24,05:40:00,DRY,1.00,17.97,17.0,779.00,0.9
2020-05-24,05:45:00,DRY,1.20,18.00,17.0,779.00,0.8
2020-05-24,05:50:00,DRY,1.00,17.83,17.0,779.00,0.9
2020-05-24,05:55:00,DRY,1.00,17.80,17.0,779.00,0.8
2020-05-24,06:00:00,DRY,1.30,17.90,17.0,779.00,2.7
2020-05-24,06:05:00,DRY,1.25,17.95,17.0,779.00,3.1
2020-05-24,06:10:00,DRY,1.17,17.83,17.0,779.00,6.0
2020-05-24,06:15:00,DRY,1.30,18.00,17.0,779.00,7.3
2020-05-24,06:20:00,DRY,1.00,17.90,17.0,779.33,12.3
2020-05-24,06:25:00,DRY,1.20,17.95,17.0,779.00,23.0
2020-05-24,06:30:00,DRY,1.17,17.97,17.0,779.67,32.0
2020-05-24,06:35:00,DRY,1.25,17.85,17.0,779.00,43.5
2020-05-24,06:40:00,DRY,1.17,17.97,17.0,779.33,55.0
2020-05-24,06:45:00,DRY,1.15,18.05,17.0,779.50,61.2
2020-05-24,06:50:00,DRY,1.23,18.13,17.0,780.00,70.9
2020-05-24,06:55:00,DRY,1.15,18.15,17.0,780.00,90.8
2020-05-24,07:00:00,DRY,1.03,18.13,17.0,780.00,114.0
2020-05-24,07:05:00,DRY,1.15,18.20,17.0,780.00,120.1
2020-05-24,07:10:00,DRY,1.03,18.27,17.0,780.00,156.9
2020-05-24,07:15:00,DRY,1.05,18.30,17.0,780.00,162.9
2020-05-24,07:20:00,DRY,1.10,18.47,16.7,780.00,211.5
2020-05-24,07:25:00,DRY,0.80,18.60,17.5,780.00,236.2
2020-05-24,07:30:00,DRY,0.37,19.00,17.3,780.00,258.8
2020-05-24,07:35:00,DRY,0.70,19.55,17.5,780.00,279.1
2020-05-24,07:40:00,DRY,0.27,19.80,17.3,780.00,299.3
2020-05-24,07:45:00,DRY,0.30,19.80,16.5,780.00,323.9
2020-05-24,07:50:00,DRY,0.73,19.50,15.0,780.00,345.6
2020-05-24,07:55:00,DRY,0.80,19.40,15.5,779.50,371.2
2020-05-24,08:00:00,DRY,0.83,19.50,15.7,779.33,395.5
2020-05-24,08:05:00,DRY,0.70,19.45,17.0,779.50,420.4
2020-05-24,08:10:00,DRY,0.53,19.60,16.7,779.00,441.9
2020-05-24,08:15:00,DRY,0.45,19.90,18.5,779.00,462.9
2020-05-24,08:20:00,DRY,0.27,20.10,17.0,779.00,485.6
2020-05-24,08:25:00,DRY,0.80,20.20,16.0,779.00,510.1
2020-05-24,08:30:00,DRY,1.00,19.87,18.7,779.00,533.0
2020-05-24,08:35:00,DRY,1.15,19.60,18.0,779.00,556.0
2020-05-24,08:40:00,DRY,1.10,19.70,19.0,779.00,578.9
2020-05-24,08:45:00,DRY,2.00,19.60,19.0,779.00,597.5
2020-05-24,08:50:00,DRY,0.93,20.13,19.3,779.00,617.1
2020-05-24,08:55:00,DRY,1.20,19.90,19.5,779.00,639.4
2020-05-24,09:00:00,DRY,1.40,19.80,19.3,779.33,661.4
2020-05-24,09:05:00,DRY,1.30,20.15,19.5,779.00,676.1
2020-05-24,09:10:00,DRY,2.23,20.07,18.3,779.00,698.4
2020-05-24,09:15:00,DRY,1.60,20.00,19.5,779.00,717.8
2020-05-24,09:20:00,DRY,1.73,20.07,19.0,779.33,734.2
2020-05-24,09:25:00,DRY,1.70,20.50,17.5,779.50,745.5
2020-05-24,09:30:00,DRY,1.80,20.20,18.0,779.00,777.4
2020-05-24,09:35:00,DRY,1.40,20.10,19.0,779.00,791.8
2020-05-24,09:40:00,DRY,1.13,20.47,18.3,779.00,810.6
2020-05-24,09:45:00,DRY,1.05,20.70,17.5,779.50,831.2
2020-05-24,09:50:00,DRY,1.80,20.53,17.7,779.67,844.4
2020-05-24,09:55:00,DRY,1.30,20.60,18.0,779.00,876.8
2020-05-24,10:00:00,DRY,1.67,20.87,17.7,780.00,880.4
2020-05-24,10:05:00,DRY,1.40,20.95,16.5,780.00,895.2
2020-05-24,10:10:00,DRY,1.57,20.80,17.0,780.00,918.8
2020-05-24,10:15:00,DRY,2.00,20.80,15.5,780.00,930.5
2020-05-24,10:20:00,DRY,3.30,20.40,17.0,780.00,943.9
2020-05-24,10:25:00,DRY,1.90,20.55,15.0,780.00,965.0
2020-05-24,10:30:00,DRY,2.97,20.70,17.0,780.00,982.6
2020-05-24,10:35:00,DRY,2.35,20.40,15.5,780.00,999.7
2020-05-24,10:40:00,DRY,2.20,20.90,16.3,780.00,1016.1
2020-05-24,10:45:00,DRY,4.05,20.55,16.0,780.00,1029.5
2020-05-24,10:50:00,DRY,2.33,20.80,16.0,780.00,1037.6
2020-05-24,10:55:00,DRY,4.05,20.75,15.5,780.00,1051.5
2020-05-24,11:00:00,DRY,2.83,20.57,15.7,780.00,1063.6
2020-05-24,11:05:00,DRY,3.70,20.60,15.0,780.00,1073.3
2020-05-24,11:10:00,DRY,3.33,20.23,16.3,780.00,1092.6
2020-05-24,11:15:00,DRY,3.65,20.70,16.0,780.00,1090.7
2020-05-24,11:20:00,DRY,2.90,20.43,15.7,780.00,1106.4
2020-05-24,11:25:00,DRY,3.90,20.70,15.5,780.00,1115.2
2020-05-24,11:30:00,DRY,2.53,20.90,15.3,780.00,1127.9
2020-05-24,11:35:00,DRY,4.20,20.80,15.0,780.00,1129.2
2020-05-24,11:40:00,DRY,3.43,20.70,15.3,780.00,1138.2
2020-05-24,11:45:00,DRY,3.25,20.95,16.0,780.00,1152.1
2020-05-24,11:50:00,DRY,3.47,21.47,16.7,780.00,1149.2
2020-05-24,11:55:00,DRY,4.80,21.05,15.0,780.00,1161.9
2020-05-24,12:00:00,DRY,4.30,20.80,15.7,780.00,1166.1
2020-05-24,12:05:00,DRY,3.70,21.20,15.0,780.00,1180.8
2020-05-24,12:10:00,DRY,2.57,21.57,17.3,780.00,1180.2
2020-05-24,12:15:00,DRY,2.70,21.90,16.5,780.00,1183.2
2020-05-24,12:20:00,DRY,2.90,22.47,17.7,780.00,1186.2
2020-05-24,12:25:00,DRY,3.05,22.70,17.5,780.00,1197.0
2020-05-24,12:30:00,DRY,3.40,22.87,16.7,780.00,1197.7
2020-05-24,12:35:00,DRY,3.90,21.75,17.5,780.00,1196.8
2020-05-24,12:40:00,DRY,3.57,22.33,17.3,780.00,1198.7
2020-05-24,12:45:00,DRY,4.25,21.60,18.0,780.00,1200.2
2020-05-24,12:50:00,DRY,3.43,21.50,17.7,780.00,1188.7
2020-05-24,12:55:00,DRY,3.10,21.90,18.0,780.00,1197.0
2020-05-24,13:00:00,DRY,2.47,22.60,17.7,780.00,1197.3
2020-05-24,13:05:00,DRY,2.35,21.45,16.5,780.00,1202.0
2020-05-24,13:10:00,DRY,3.57,22.17,18.3,780.00,1196.1
2020-05-24,13:15:00,DRY,2.40,22.35,18.0,780.00,1201.2
2020-05-24,13:20:00,DRY,2.83,21.93,17.0,780.00,1191.1
2020-05-24,13:25:00,DRY,2.90,22.40,18.0,780.00,1198.4
2020-05-24,13:30:00,DRY,2.90,22.20,17.0,780.00,1187.2
2020-05-24,13:35:00,DRY,4.90,22.50,18.0,780.00,1187.8
2020-05-24,13:40:00,DRY,3.70,22.70,17.7,780.00,1185.6
2020-05-24,13:45:00,DRY,4.00,22.35,17.5,780.00,1181.2
2020-05-24,13:50:00,DRY,2.67,21.67,18.0,780.00,1181.1
2020-05-24,13:55:00,DRY,4.25,22.40,18.0,780.00,1181.0
2020-05-24,14:00:00,DRY,3.03,21.83,16.7,780.00,1177.7
2020-05-24,14:05:00,DRY,3.10,21.70,18.5,780.00,1171.6
2020-05-24,14:10:00,DRY,3.30,22.43,17.0,780.00,1165.4
2020-05-24,14:15:00,DRY,2.40,21.80,17.5,780.00,1165.5
2020-05-24,14:20:00,DRY,3.47,22.27,18.0,780.00,1154.9
2020-05-24,14:25:00,DRY,3.40,22.65,18.0,780.00,1140.1
2020-05-24,14:30:00,DRY,3.10,22.37,17.7,780.00,1141.7
2020-05-24,14:35:00,DRY,2.30,22.75,17.0,780.00,1130.3
2020-05-24,14:40:00,DRY,2.53,21.63,17.3,780.00,1122.4
2020-05-24,14:45:00,DRY,3.95,21.80,17.0,780.00,1115.8
2020-05-24,14:50:00,DRY,3.63,22.03,17.3,780.00,1100.2
2020-05-24,14:55:00,DRY,4.80,22.00,17.0,780.00,1094.5
2020-05-24,15:00:00,DRY,4.10,21.57,18.0,780.00,1084.5
2020-05-24,15:05:00,DRY,2.75,21.25,16.5,780.00,1064.8
2020-05-24,15:10:00,DRY,3.33,21.53,17.3,780.00,1053.4
2020-05-24,15:15:00,DRY,3.00,22.50,16.5,780.00,1043.7
2020-05-24,15:20:00,DRY,3.07,22.37,16.3,780.00,1035.4
2020-05-24,15:25:00,DRY,5.70,21.85,15.5,780.00,1013.0
2020-05-24,15:30:00,DRY,4.57,21.53,17.0,780.00,1006.0
2020-05-24,15:35:00,DRY,3.45,20.85,16.5,780.00,990.5
2020-05-24,15:40:00,DRY,3.77,21.33,15.7,780.00,976.7
2020-05-24,15:45:00,DRY,4.90,21.45,16.5,780.00,962.8
2020-05-24,15:50:00,DRY,3.90,21.10,15.7,780.00,944.3
2020-05-24,15:55:00,DRY,4.45,21.00,16.5,780.00,940.0
2020-05-24,16:00:00,DRY,4.47,20.97,16.0,780.00,917.0
2020-05-24,16:05:00,DRY,4.90,20.75,17.0,780.00,895.9
2020-05-24,16:10:00,DRY,4.23,20.87,16.3,780.00,881.6
2020-05-24,16:15:00,DRY,4.10,21.05,16.0,780.00,867.8
2020-05-24,16:20:00,DRY,4.13,20.70,17.0,780.00,850.1
2020-05-24,16:25:00,DRY,5.00,20.70,16.5,780.00,830.4
2020-05-24,16:30:00,DRY,4.23,20.73,16.0,780.00,815.3
2020-05-24,16:35:00,DRY,5.45,20.70,17.0,780.00,798.9
2020-05-24,16:40:00,DRY,3.63,20.27,16.7,780.00,780.8
2020-05-24,16:45:00,DRY,4.80,20.90,15.5,780.00,761.2
2020-05-24,16:50:00,DRY,4.73,20.60,15.7,780.00,742.5
2020-05-24,16:55:00,DRY,4.55,20.35,15.5,780.00,726.4
2020-05-24,17:00:00,DRY,4.50,20.40,16.0,780.00,706.2
2020-05-24,17:05:00,DRY,3.55,20.55,16.0,780.00,682.7
2020-05-24,17:10:00,DRY,5.90,20.63,16.3,780.00,663.3
2020-05-24,17:15:00,DRY,3.15,20.25,16.0,780.00,641.9
2020-05-24,17:20:00,DRY,3.63,20.73,16.0,780.00,623.4
2020-05-24,17:25:00,DRY,4.45,20.70,15.5,780.00,602.2
2020-05-24,17:30:00,DRY,3.87,20.33,16.3,780.00,580.0
2020-05-24,17:35:00,DRY,3.30,20.70,15.0,780.00,560.0
2020-05-24,17:40:00,DRY,4.50,20.47,15.3,780.00,539.1
2020-05-24,17:45:00,DRY,4.00,20.30,16.5,780.00,519.2
2020-05-24,17:50:00,DRY,3.87,20.17,15.7,779.33,497.0
2020-05-24,17:55:00,DRY,4.20,20.15,16.0,780.00,476.2
2020-05-24,18:00:00,DRY,3.90,20.03,16.0,779.33,454.0
2020-05-24,18:05:00,DRY,4.15,19.95,15.0,779.00,432.5
2020-05-24,18:10:00,DRY,3.63,19.77,15.7,779.33,408.3
2020-05-24,18:15:00,DRY,3.65,19.75,15.0,779.00,384.1
2020-05-24,18:20:00,DRY,4.27,19.87,16.0,779.33,362.9
2020-05-24,18:25:00,DRY,3.55,19.55,15.5,779.50,340.4
2020-05-24,18:30:00,DRY,3.77,19.50,15.7,779.67,318.0
2020-05-24,18:35:00,DRY,4.50,19.55,15.0,780.00,294.2
2020-05-24,18:40:00,DRY,3.93,19.50,15.7,779.67,271.7
2020-05-24,18:45:00,DRY,2.85,19.20,15.5,780.00,248.8
2020-05-24,18:50:00,DRY,3.10,19.33,16.0,780.00,226.9
2020-05-24,18:55:00,DRY,4.75,19.40,15.0,780.00,204.8
2020-05-24,19:00:00,DRY,3.93,19.17,15.7,780.00,184.0
2020-05-24,19:05:00,DRY,4.30,19.00,15.5,780.00,164.2
2020-05-24,19:10:00,DRY,3.90,18.90,15.7,780.00,144.5
2020-05-24,19:15:00,DRY,4.15,18.80,16.0,780.00,125.1
2020-05-24,19:20:00,DRY,4.50,18.60,15.3,780.00,105.9
2020-05-24,19:25:00,DRY,3.90,18.55,16.0,780.00,85.7
2020-05-24,19:30:00,DRY,4.00,18.40,16.0,780.00,67.8
2020-05-24,19:35:00,DRY,2.90,18.15,16.0,780.00,51.5
2020-05-24,19:40:00,DRY,3.87,18.07,16.0,780.00,37.8
2020-05-24,19:45:00,DRY,4.50,18.05,16.0,780.00,27.4
2020-05-24,19:50:00,DRY,3.73,17.80,16.0,780.00,18.0
2020-05-24,19:55:00,DRY,4.40,17.80,15.5,780.00,11.7
2020-05-24,20:00:00,DRY,3.80,17.77,16.0,780.00,7.5
2020-05-24,20:05:00,DRY,3.75,17.75,16.0,780.00,5.4
2020-05-24,20:10:00,DRY,3.47,17.57,16.0,780.00,3.1
2020-05-24,20:15:00,DRY,4.80,17.60,16.0,780.00,2.4
2020-05-24,20:20:00,DRY,4.17,17.53,16.0,780.00,1.6
2020-05-24,20:25:00,DRY,5.30,17.45,16.0,780.00,1.9
2020-05-24,20:30:00,DRY,4.37,17.40,16.0,780.00,1.4
2020-05-24,20:35:00,DRY,4.05,17.40,16.5,780.00,1.1
2020-05-24,20:40:00,DRY,4.73,17.30,16.0,780.00,1.3
2020-05-24,20:45:00,DRY,4.75,17.30,16.5,780.00,1.2
2020-05-24,20:50:00,DRY,5.13,17.37,16.0,780.00,1.2
2020-05-24,20:55:00,DRY,4.60,17.30,16.0,780.00,1.5
2020-05-24,21:00:00,DRY,5.35,17.35,16.0,780.00,1.0
2020-05-24,21:05:00,DRY,3.80,17.25,16.0,780.00,1.4
2020-05-24,21:10:00,DRY,3.93,17.20,16.0,780.00,1.3
2020-05-24,21:15:00,DRY,3.60,17.25,16.0,780.00,0.8
2020-05-24,21:20:00,DRY,4.63,17.10,16.0,780.00,1.3
2020-05-24,21:25:00,DRY,4.45,17.00,16.0,780.00,1.1
2020-05-24,21:30:00,DRY,3.83,17.10,16.0,780.00,1.4
2020-05-24,21:35:00,DRY,3.70,16.95,16.0,780.00,0.8
2020-05-24,21:40:00,DRY,4.73,17.10,16.0,780.00,1.6
2020-05-24,21:45:00,DRY,4.05,16.90,16.0,780.00,1.1
2020-05-24,21:50:00,DRY,4.37,17.07,16.0,781.00,1.3
2020-05-24,21:55:00,DRY,3.55,17.00,16.0,781.00,1.5
2020-05-24,22:00:00,DRY,4.03,16.90,16.0,781.00,1.2
2020-05-24,22:05:00,DRY,4.60,16.65,16.0,781.00,1.2
2020-05-24,22:10:00,DRY,4.47,16.93,16.0,781.00,1.2
2020-05-24,22:15:00,DRY,3.80,16.95,16.0,781.00,1.2
2020-05-24,22:20:00,DRY,4.40,17.10,16.0,781.00,1.2
2020-05-24,22:25:00,DRY,5.40,16.95,16.0,781.00,1.1
2020-05-24,22:30:00,DRY,5.00,17.00,15.7,781.00,1.2
2020-05-24,22:35:00,DRY,5.25,17.00,16.0,780.50,0.8
2020-05-24,22:40:00,DRY,4.77,16.83,16.0,780.67,0.7
2020-05-24,22:45:00,DRY,4.25,16.70,16.0,781.00,1.1
2020-05-24,22:50:00,DRY,5.50,16.97,16.3,781.00,1.2
2020-05-24,22:55:00,DRY,4.60,16.80,15.0,781.00,1.1
2020-05-24,23:00:00,DRY,4.83,16.60,15.7,781.00,1.2
2020-05-24,23:05:00,DRY,4.75,16.75,15.5,781.00,1.1
2020-05-24,23:10:00,DRY,4.47,16.70,16.0,781.00,1.8
2020-05-24,23:15:00,DRY,4.45,16.75,16.5,781.00,1.1
2020-05-24,23:20:00,DRY,4.30,16.77,16.3,781.00,1.2
2020-05-24,23:25:00,DRY,4.95,16.95,16.0,781.00,1.1
2020-05-24,23:30:00,DRY,5.10,16.87,16.3,781.00,1.0
2020-05-24,23:35:00,DRY,5.15,16.95,16.0,781.00,1.1
2020-05-24,23:40:00,DRY,4.23,16.73,15.7,781.00,1.2
2020-05-24,23:45:00,DRY,4.15,16.75,15.0,781.00,1.2
2020-05-24,23:50:00,DRY,4.57,16.90,15.0,781.00,1.3
2020-05-24,23:55:00,DRY,4.00,16.80,15.0,781.00,1.0
2020-05-25,00:00:00,DRY,4.80,16.87,15.0,781.00,1.2
2020-05-25,00:05:00,DRY,4.05,16.70,15.0,780.50,1.1
2020-05-25,00:10:00,DRY,4.73,16.67,15.0,780.00,1.0
2020-05-25,00:15:00,DRY,4.05,16.55,15.0,780.00,1.2
2020-05-25,00:20:00,DRY,4.60,16.57,15.0,780.00,1.0
2020-05-25,00:25:00,DRY,4.35,16.55,15.5,780.00,0.6
2020-05-25,00:30:00,DRY,3.97,16.57,15.0,780.00,1.2
2020-05-25,00:35:00,DRY,4.55,16.60,15.5,780.00,1.0
2020-05-25,00:40:00,DRY,4.53,16.43,15.0,780.00,1.1
2020-05-25,00:45:00,DRY,4.55,16.40,15.5,780.00,1.1
2020-05-25,00:50:00,DRY,4.53,16.50,15.3,780.00,1.2
2020-05-25,00:55:00,DRY,4.95,16.55,15.0,780.00,1.1
2020-05-25,01:00:00,DRY,5.00,16.43,15.0,780.00,1.0
2020-05-25,01:05:00,DRY,4.35,16.55,15.0,780.00,1.0
2020-05-25,01:10:00,DRY,5.00,16.37,14.7,780.00,1.0
2020-05-25,01:15:00,DRY,4.40,16.60,15.0,780.00,1.1
2020-05-25,01:20:00,DRY,4.57,16.47,14.3,780.00,1.1
2020-05-25,01:25:00,DRY,5.20,16.35,15.0,780.00,1.6
2020-05-25,01:30:00,DRY,4.87,16.37,14.0,780.00,1.5
2020-05-25,01:35:00,DRY,5.40,16.35,14.0,780.00,1.0
2020-05-25,01:40:00,DRY,4.57,16.33,14.7,780.00,1.1
2020-05-25,01:45:00,DRY,4.90,16.75,15.0,780.00,1.0
2020-05-25,01:50:00,DRY,2.97,16.43,14.0,780.00,1.2
2020-05-25,01:55:00,DRY,5.25,16.35,14.0,780.00,1.1
2020-05-25,02:00:00,DRY,4.77,16.37,13.7,780.00,1.3
2020-05-25,02:05:00,DRY,5.25,16.35,13.5,779.50,1.4
2020-05-25,02:10:00,DRY,4.27,16.43,13.0,779.33,1.2
2020-05-25,02:15:00,DRY,5.05,16.45,14.0,779.00,1.0
2020-05-25,02:20:00,DRY,5.27,16.23,14.0,779.00,0.7
2020-05-25,02:25:00,DRY,4.35,16.35,14.0,779.00,1.2
2020-05-25,02:30:00,DRY,4.90,16.20,13.7,779.00,1.1
2020-05-25,02:35:00,DRY,6.05,16.60,14.5,779.00,1.1
2020-05-25,02:40:00,DRY,3.60,16.73,12.3,779.00,1.2
2020-05-25,02:45:00,DRY,4.25,16.40,12.0,779.00,1.1
2020-05-25,02:50:00,DRY,5.20,16.30,12.7,779.00,1.0
2020-05-25,02:55:00,DRY,5.35,16.20,12.5,779.00,1.2
2020-05-25,03:00:00,DRY,4.80,16.53,13.7,779.00,1.0
2020-05-25,03:05:00,DRY,5.40,16.45,14.0,779.00,0.9
2020-05-25,03:10:00,DRY,4.33,16.57,13.0,779.00,1.2
2020-05-25,03:15:00,DRY,5.35,16.20,13.5,779.00,1.2
2020-05-25,03:20:00,DRY,5.27,16.50,13.3,779.00,1.1
2020-05-25,03:25:00,DRY,5.85,16.90,14.0,779.00,1.5
2020-05-25,03:30:00,DRY,3.90,16.63,13.0,779.00,1.6
2020-05-25,03:35:00,DRY,4.60,16.20,13.5,779.00,1.3
2020-05-25,03:40:00,DRY,4.87,16.33,14.0,779.00,1.1
2020-05-25,03:45:00,DRY,4.50,16.25,14.0,779.00,1.0
2020-05-25,03:50:00,DRY,4.50,15.97,13.7,779.00,1.1
2020-05-25,03:55:00,DRY,5.80,16.20,13.5,779.00,0.8
2020-05-25,04:00:00,DRY,4.97,16.30,14.0,779.00,1.2
2020-05-25,04:05:00,DRY,4.60,16.45,14.0,779.00,1.0
2020-05-25,04:10:00,DRY,5.23,16.27,14.7,779.00,0.8
2020-05-25,04:15:00,DRY,4.70,16.55,14.0,779.00,1.0
2020-05-25,04:20:00,DRY,3.70,16.20,14.3,779.00,1.0
2020-05-25,04:25:00,DRY,4.40,16.20,14.0,779.00,1.4
2020-05-25,04:30:00,DRY,4.40,16.27,15.7,779.00,1.1
2020-05-25,04:35:00,DRY,4.90,16.25,15.0,779.00,1.0
2020-05-25,04:40:00,DRY,5.30,16.33,14.7,779.00,1.2
2020-05-25,04:45:00,DRY,6.05,16.60,14.5,779.00,0.9
2020-05-25,04:50:00,DRY,5.07,16.43,15.0,779.00,1.1
2020-05-25,04:55:00,DRY,3.90,16.10,15.0,779.00,0.9
2020-05-25,05:00:00,DRY,5.40,16.27,15.3,779.00,1.1
2020-05-25,05:05:00,DRY,4.50,16.20,15.0,779.00,1.5
2020-05-25,05:10:00,DRY,5.53,16.40,15.0,779.00,1.4
2020-05-25,05:15:00,DRY,4.95,16.40,15.5,779.00,1.1
2020-05-25,05:20:00,DRY,4.77,16.23,15.3,779.00,0.9
2020-05-25,05:25:00,DRY,4.90,16.45,14.5,779.00,1.3
2020-05-25,05:30:00,DRY,5.13,16.33,14.3,779.00,1.4
2020-05-25,05:35:00,DRY,4.75,16.20,14.0,779.00,1.1
2020-05-25,05:40:00,DRY,5.07,16.23,14.0,779.00,1.3
2020-05-25,05:45:00,DRY,4.35,16.00,14.0,779.00,1.1
2020-05-25,05:50:00,DRY,4.87,16.17,14.0,779.00,1.1
2020-05-25,05:55:00,DRY,5.70,16.00,14.0,779.00,1.5
2020-05-25,06:00:00,DRY,5.27,16.23,13.7,779.00,1.6
2020-05-25,06:05:00,DRY,4.60,16.20,13.0,779.00,2.5
2020-05-25,06:10:00,DRY,4.80,15.97,13.3,779.00,4.6
2020-05-25,06:15:00,DRY,5.20,16.00,13.5,779.00,7.0
2020-05-25,06:20:00,DRY,5.40,15.93,13.7,779.00,10.7
2020-05-25,06:25:00,DRY,4.60,16.00,14.0,779.00,17.0
2020-05-25,06:30:00,DRY,5.90,16.27,14.7,779.00,26.5
2020-05-25,06:35:00,DRY,6.60,16.45,14.0,779.00,39.7
2020-05-25,06:40:00,DRY,5.27,16.37,14.0,779.00,57.8
2020-05-25,06:45:00,DRY,4.85,16.50,14.5,779.00,77.0
2020-05-25,06:50:00,DRY,6.13,16.70,15.0,779.00,95.3
2020-05-25,06:55:00,DRY,4.55,16.85,14.0,779.00,116.7
2020-05-25,07:00:00,DRY,5.23,16.93,14.0,779.00,138.1
2020-05-25,07:05:00,DRY,5.50,17.05,14.0,779.00,159.1
2020-05-25,07:10:00,DRY,5.87,17.20,14.0,779.00,182.7
2020-05-25,07:15:00,DRY,5.55,17.30,14.0,779.00,203.8
2020-05-25,07:20:00,DRY,4.90,17.47,13.3,779.00,226.7
2020-05-25,07:25:00,DRY,5.70,17.55,13.0,779.00,250.0
2020-05-25,07:30:00,DRY,5.07,17.60,13.3,779.00,274.2
2020-05-25,07:35:00,DRY,4.50,17.70,13.0,779.00,297.8
2020-05-25,07:40:00,DRY,4.97,17.83,13.0,779.00,322.0
2020-05-25,07:45:00,DRY,5.05,17.95,13.0,779.00,345.5
2020-05-25,07:50:00,DRY,5.43,18.10,13.0,779.00,368.7
2020-05-25,07:55:00,DRY,5.45,18.25,13.0,779.00,392.8
2020-05-25,08:00:00,DRY,5.30,18.30,12.3,779.00,416.1
2020-05-25,08:05:00,DRY,4.75,18.40,12.0,779.00,439.0
2020-05-25,08:10:00,DRY,5.20,18.50,12.3,779.00,461.5
2020-05-25,08:15:00,DRY,5.65,18.55,12.5,779.00,483.1
2020-05-25,08:20:00,DRY,5.57,18.67,13.0,779.00,504.4
2020-05-25,08:25:00,DRY,4.80,18.90,13.0,779.00,526.6
2020-05-25,08:30:00,DRY,5.23,18.97,12.7,779.00,549.5
2020-05-25,08:35:00,DRY,5.45,18.95,14.0,779.00,572.8
2020-05-25,08:40:00,DRY,4.73,19.07,13.3,779.00,595.0
2020-05-25,08:45:00,DRY,6.20,19.30,13.0,779.00,613.8
2020-05-25,08:50:00,DRY,4.93,19.30,13.0,779.00,634.5
2020-05-25,08:55:00,DRY,5.35,19.40,13.0,779.00,656.2
2020-05-25,09:00:00,DRY,5.10,19.50,13.0,779.00,676.6
2020-05-25,09:05:00,DRY,5.25,19.65,13.0,779.00,695.6
2020-05-25,09:10:00,DRY,5.80,19.70,12.3,779.00,714.8
2020-05-25,09:15:00,DRY,5.55,19.80,12.5,779.00,734.8
2020-05-25,09:20:00,DRY,5.23,20.00,13.0,779.00,755.2
2020-05-25,09:25:00,DRY,5.60,20.10,12.0,779.00,773.2
2020-05-25,09:30:00,DRY,5.77,20.13,12.0,779.00,791.9
2020-05-25,09:35:00,DRY,5.55,20.25,12.0,779.00,809.7
2020-05-25,09:40:00,DRY,5.63,20.30,12.0,779.00,828.0
2020-05-25,09:45:00,DRY,5.05,20.15,12.5,779.00,845.6
2020-05-25,09:50:00,DRY,5.10,20.53,11.7,779.00,862.3
2020-05-25,09:55:00,DRY,4.30,20.55,12.0,779.00,880.2
2020-05-25,10:00:00,DRY,5.43,20.63,11.7,779.00,894.3
2020-05-25,10:05:00,DRY,5.65,20.95,11.0,779.00,908.4
2020-05-25,10:10:00,DRY,5.83,20.80,12.0,779.00,923.9
2020-05-25,10:15:00,DRY,6.05,21.05,11.5,779.00,940.9
2020-05-25,10:20:00,DRY,5.40,20.87,11.0,779.00,955.6
2020-05-25,10:25:00,DRY,5.60,21.00,10.5,779.00,968.0
2020-05-25,10:30:00,DRY,5.63,21.17,11.3,779.67,981.8
2020-05-25,10:35:00,DRY,5.50,21.15,11.5,779.50,997.6
2020-05-25,10:40:00,DRY,5.87,21.23,11.7,780.00,1008.9
2020-05-25,10:45:00,DRY,4.45,21.10,10.0,780.00,1021.5
2020-05-25,10:50:00,DRY,5.73,21.27,11.3,780.00,1035.0
2020-05-25,10:55:00,DRY,5.70,21.20,10.5,780.00,1045.7
2020-05-25,11:00:00,DRY,6.53,21.40,10.3,780.00,1058.2
2020-05-25,11:05:00,DRY,5.25,21.30,10.5,780.00,1069.7
2020-05-25,11:10:00,DRY,6.27,21.43,11.7,779.67,1079.0
2020-05-25,11:15:00,DRY,5.85,21.20,12.0,779.50,1089.4
2020-05-25,11:20:00,DRY,6.77,21.33,12.0,780.00,1098.0
2020-05-25,11:25:00,DRY,5.40,21.25,11.5,780.00,1107.4
2020-05-25,11:30:00,DRY,5.03,21.30,12.0,780.00,1115.0
2020-05-25,11:35:00,DRY,5.65,21.10,14.0,780.00,1125.2
2020-05-25,11:40:00,DRY,5.10,21.10,14.0,780.00,1130.9
2020-05-25,11:45:00,DRY,6.10,21.80,14.0,780.00,1138.6
2020-05-25,11:50:00,DRY,5.37,21.57,13.0,780.00,1146.0
2020-05-25,11:55:00,DRY,3.10,21.55,12.5,780.00,1153.5
2020-05-25,12:00:00,DRY,6.17,21.40,13.0,780.00,1158.4
2020-05-25,12:05:00,DRY,4.85,21.40,14.0,780.00,1163.1
2020-05-25,12:10:00,DRY,6.00,21.63,13.0,780.00,1166.8
2020-05-25,12:15:00,DRY,5.30,21.35,13.5,780.00,1172.1
2020-05-25,12:20:00,DRY,4.97,21.23,12.7,780.00,1174.8
2020-05-25,12:25:00,DRY,5.50,21.45,15.0,780.00,1180.2
2020-05-25,12:30:00,DRY,4.07,21.30,11.7,780.00,1187.5
2020-05-25,12:35:00,DRY,6.00,21.75,15.0,780.00,1183.2
2020-05-25,12:40:00,DRY,3.83,22.30,12.3,780.00,1190.6
2020-05-25,12:45:00,DRY,4.95,22.40,12.0,780.00,1190.3
2020-05-25,12:50:00,DRY,4.80,21.63,14.3,780.00,1191.8
2020-05-25,12:55:00,DRY,4.90,21.65,13.5,780.00,1193.8
2020-05-25,13:00:00,DRY,5.50,21.57,15.3,780.00,1191.7
2020-05-25,13:05:00,DRY,4.40,21.65,13.0,780.00,1195.8
2020-05-25,13:10:00,DRY,5.27,21.67,14.0,780.00,1191.3
2020-05-25,13:15:00,DRY,5.10,21.95,14.5,780.00,1196.4
2020-05-25,13:20:00,DRY,4.97,21.77,14.3,780.00,1193.5
2020-05-25,13:25:00,DRY,5.35,21.85,14.0,780.00,1191.8
2020-05-25,13:30:00,DRY,5.70,21.50,14.0,780.00,1193.0
2020-05-25,13:35:00,DRY,4.50,21.40,16.0,780.00,1188.2
2020-05-25,13:40:00,DRY,5.63,21.80,15.0,780.00,1188.5
2020-05-25,13:45:00,DRY,5.00,21.60,16.5,780.00,1186.7
2020-05-25,13:50:00,DRY,4.80,21.70,15.3,780.00,1182.9
2020-05-25,13:55:00,DRY,6.65,21.75,14.0,780.00,1179.5
2020-05-25,14:00:00,DRY,4.97,21.70,16.0,780.00,1174.2
2020-05-25,14:05:00,DRY,5.30,22.35,16.0,780.00,1169.5
2020-05-25,14:10:00,DRY,5.00,22.07,16.3,780.00,1164.9
2020-05-25,14:15:00,DRY,5.20,21.95,15.5,780.00,1160.5
2020-05-25,14:20:00,DRY,4.67,22.13,14.7,779.67,1154.7
2020-05-25,14:25:00,DRY,5.35,21.65,13.5,780.00,1147.4
2020-05-25,14:30:00,DRY,5.83,21.53,13.3,779.67,1139.6
2020-05-25,14:35:00,DRY,5.20,21.65,13.0,779.00,1129.7
2020-05-25,14:40:00,DRY,5.93,21.63,13.0,779.67,1121.2
2020-05-25,14:45:00,DRY,5.35,21.85,13.5,779.00,1112.9
2020-05-25,14:50:00,DRY,5.80,22.03,13.0,779.67,1105.6
2020-05-25,14:55:00,DRY,5.05,22.30,14.5,779.50,1095.8
2020-05-25,15:00:00,DRY,4.53,22.03,13.3,779.33,1085.2
2020-05-25,15:05:00,DRY,5.35,21.80,11.5,779.50,1077.3
2020-05-25,15:10:00,DRY,6.10,21.97,12.7,779.00,1063.7
2020-05-25,15:15:00,DRY,5.75,21.60,11.5,779.00,1054.3
2020-05-25,15:20:00,DRY,5.00,21.70,12.7,779.00,1040.4
2020-05-25,15:25:00,DRY,5.45,21.85,11.0,779.00,1028.1
2020-05-25,15:30:00,DRY,5.87,21.83,11.7,779.00,1014.9
2020-05-25,15:35:00,DRY,4.50,21.75,12.5,779.00,1001.3
2020-05-25,15:40:00,DRY,6.00,21.60,13.0,779.00,987.0
2020-05-25,15:45:00,DRY,4.70,21.85,12.0,779.00,974.2
2020-05-25,15:50:00,DRY,5.30,21.77,12.3,779.00,959.8
2020-05-25,15:55:00,DRY,6.95,21.70,11.0,779.00,946.5
2020-05-25,16:00:00,DRY,6.67,21.43,11.0,779.00,928.9
2020-05-25,16:05:00,DRY,4.75,21.25,11.5,779.00,914.1
2020-05-25,16:10:00,DRY,6.17,21.50,12.0,779.00,897.9
2020-05-25,16:15:00,DRY,4.65,21.40,11.0,779.00,881.4
2020-05-25,16:20:00,DRY,5.20,21.60,11.3,779.00,863.7
2020-05-25,16:25:00,DRY,4.25,21.15,10.5,779.00,847.9
2020-05-25,16:30:00,DRY,5.90,21.23,11.3,779.00,828.6
2020-05-25,16:35:00,DRY,4.95,21.90,11.5,779.00,813.7
2020-05-25,16:40:00,DRY,5.00,21.60,10.5,779.00,789.3
2020-05-25,16:45:00,DRY,7.10,21.40,10.5,779.00,775.0
2020-05-25,16:50:00,DRY,7.33,21.17,10.0,779.00,757.2
2020-05-25,16:55:00,DRY,6.55,21.15,9.5,779.00,739.1
2020-05-25,17:00:00,DRY,6.80,21.23,10.0,779.00,717.7
2020-05-25,17:05:00,DRY,5.50,21.35,10.0,779.00,699.0
2020-05-25,17:10:00,DRY,6.97,21.27,10.3,779.00,680.5
2020-05-25,17:15:00,DRY,6.35,21.20,9.5,779.00,660.0
2020-05-25,17:20:00,DRY,7.43,20.93,9.0,779.00,640.0
2020-05-25,17:25:00,DRY,5.70,20.90,9.5,779.00,620.1
2020-05-25,17:30:00,DRY,5.70,20.87,10.0,779.00,599.5
2020-05-25,17:35:00,DRY,6.60,20.95,9.5,779.00,579.2
2020-05-25,17:40:00,DRY,4.77,21.07,9.3,779.00,555.9
2020-05-25,17:45:00,DRY,4.95,21.30,10.0,779.00,534.0
2020-05-25,17:50:00,DRY,6.57,20.60,9.0,779.00,512.5
2020-05-25,17:55:00,DRY,6.05,20.55,9.0,779.00,490.5
2020-05-25,18:00:00,DRY,6.03,20.43,9.3,779.00,467.7
2020-05-25,18:05:00,DRY,6.75,20.40,9.0,779.00,444.9
2020-05-25,18:10:00,DRY,7.17,20.13,8.7,779.00,422.2
2020-05-25,18:15:00,DRY,5.85,20.25,8.0,779.00,400.5
2020-05-25,18:20:00,DRY,7.23,20.07,8.3,779.00,376.8
2020-05-25,18:25:00,DRY,6.25,20.05,8.0,779.00,355.8
2020-05-25,18:30:00,DRY,6.30,19.83,7.7,779.00,333.6
2020-05-25,18:35:00,DRY,6.30,19.75,8.0,779.00,311.4
2020-05-25,18:40:00,DRY,6.07,19.80,8.0,779.00,288.3
2020-05-25,18:45:00,DRY,6.30,19.65,8.0,779.00,265.1